カタログに戻る

ATLAS 5 CENTAUR DEB

運用中HEO
NORAD 46665·DEBRIS·🇺🇸 United States

打ち上げ Oct 17, 2018 から Cape Canaveral Space Force Station

Loading…

次のパス (今後24時間)

TLE

最新Source: Space-Track

元期: Sep 13, 2026, 10:49 UTC

1 46665U 18079CT  26256.45079409 -.00000143  00000-0  00000+0 0  9999
2 46665  13.5522  53.2453 4567584 267.1958  41.6598  1.71546439 37155

AllMySatでATLAS 5 CENTAUR DEBをリアルタイム追跡

Download on the App Store